QPF
0.00 0.00 0.00 0.00 0.00 0.00 0.00 0.00 0.00 0.00 0.00 0.00 0.00 0.00 0.00 0.00 0.00 0.00 0.00 0.00 0.00 0.00 0.00 0.00 0.00 0.00 0.00 0.00 0.00 0.00 0.00 0.00 0.00 0.00 0.00 0.00 0.00 0.00 0.00 0.00 0.00 0.00 0.00
0.00 0.00 0.00 0.00 0.00 0.00 0.00 0.00 0.00 0.00 0.00 0.00 0.00 0.00 0.00 0.00 0.00 0.00 0.00 0.00 0.00 0.00 0.00 0.00 0.00 0.00 0.00 0.00 0.00 0.00 0.00 0.00 0.00 0.00 0.00 0.00 0.00 0.00 0.00 0.00 0.00 0.00 0.00
0.00 0.00 0.00 0.00 0.00 0.00 0.00 0.00 0.00 0.00 0.00 0.00 0.00 0.00 0.00 0.00 0.00 0.00 0.00 0.00 0.00 0.00 0.00 0.00 0.00 0.00 0.00 0.00 0.00 0.00 0.00 0.00 0.00 0.00 0.00 0.00 0.00 0.00 0.00 0.00 0.00 0.00 0.00
0.00 0.00 0.00 0.00 0.00 0.00 0.00 0.00 0.00 0.00 0.00 0.00 0.00 0.00 0.00 0.00 0.00 0.00 0.00 0.00 0.00 0.00 0.00 0.00 0.00 0.00 0.00 0.00 0.00 0.00 0.00 0.00 0.00 0.01 0.01 0.00 0.00 0.00 0.00 0.00 0.00 0.00 0.00
0.00 0.00 0.00 0.00 0.00 0.00 0.00 0.00 0.00 0.00 0.00 0.00 0.00 0.00 0.00 0.00 0.00 0.00 0.00 0.00 0.00 0.00 0.00 0.00 0.00 0.00 0.00 0.01 0.02 0.01 0.01 0.01 0.00 0.00 0.00 0.00 0.00 0.00 0.00 0.00 0.00 0.00 0.00
0.00 0.00 0.00 0.00 0.00 0.00 0.00 0.00 0.00 0.00 0.00 0.00 0.00 0.00 0.00 0.00 0.00 0.00 0.00 0.00 0.00 0.00 0.00 0.00 0.00 0.00 0.01 0.01 0.02 0.03 0.04 0.04 0.01 0.01 0.00 0.00 0.00 0.00 0.00 0.00 0.00 0.00 0.00
0.00 0.00 0.00 0.00 0.00 0.00 0.00 0.00 0.00 0.00 0.00 0.00 0.00 0.00 0.00 0.00 0.00 0.00 0.00 0.00 0.00 0.00 0.00 0.00 0.00 0.00 0.00 0.00 0.00 0.01 0.02 0.02 0.02 0.03 0.03 0.02 0.02 0.01 0.02 0.01 0.01 0.01 0.00
0.00 0.00 0.00 0.00 0.00 0.00 0.00 0.00 0.00 0.00 0.00 0.00 0.00 0.00 0.00 0.00 0.00 0.00 0.00 0.00 0.00 0.00 0.00 0.00 0.01 0.01 0.01 0.02 0.02 0.01 0.01 0.01 0.01 0.01 0.02 0.01 0.02 0.02 0.03 0.03 0.03 0.02 0.01
0.00 0.00 0.00 0.00 0.00 0.00 0.00 0.00 0.00 0.00 0.00 0.00 0.00 0.00 0.00 0.00 0.00 0.00 0.00 0.00 0.00 0.01 0.00 0.01 0.01 0.01 0.01 0.03 0.04 0.03 0.02 0.01 0.01 0.03 0.05 0.05 0.05 0.05 0.05 0.04 0.02 0.02 0.01
0.00 0.00 0.00 0.00 0.00 0.00 0.00 0.00 0.00 0.00 0.00 0.00 0.00 0.00 0.00 0.00 0.00 0.00 0.00 0.00 0.01 0.01 0.00 0.01 0.02 0.02 0.02 0.04 0.04 0.02 0.02 0.01 0.01 0.01 0.00 0.00 0.00 0.00 0.00 0.01 0.01 0.02 0.01
0.00 0.00 0.00 0.00 0.00 0.00 0.00 0.00 0.00 0.00 0.00 0.00 0.00 0.00 0.00 0.00 0.00 0.00 0.01 0.01 0.02 0.01 0.01 0.01 0.01 0.02 0.02 0.02 0.04 0.03 0.02 0.02 0.02 0.02 0.01 0.01 0.00 0.00 0.00 0.00 0.00 0.00 0.01
0.00 0.00 0.00 0.00 0.00 0.00 0.00 0.00 0.00 0.00 0.00 0.00 0.00 0.00 0.00 0.00 0.00 0.00 0.01 0.01 0.01 0.02 0.03 0.02 0.02 0.01 0.02 0.03 0.01 0.01 0.01 0.01 0.01 0.00 0.01 0.01 0.00 0.00 0.00 0.00 0.00 0.00 0.01
0.00 0.00 0.00 0.00 0.00 0.00 0.00 0.00 0.00 0.00 0.00 0.00 0.00 0.00 0.00 0.00 0.00 0.00 0.00 0.01 0.02 0.03 0.03 0.03 0.02 0.02 0.02 0.01 0.00 0.00 0.01 0.01 0.00 0.01 0.01 0.01 0.00 0.00 0.00 0.00 0.00 0.00 0.00
0.00 0.00 0.00 0.00 0.00 0.00 0.00 0.00 0.00 0.00 0.00 0.00 0.00 0.01 0.01 0.00 0.00 0.00 0.00 0.01 0.02 0.03 0.02 0.01 0.01 0.01 0.00 0.00 0.00 0.00 0.00 0.00 0.00 0.00 0.00 0.00 0.00 0.00 0.00 0.00 0.00 0.00 0.00
0.00 0.00 0.00 0.00 0.00 0.00 0.00 0.00 0.00 0.00 0.00 0.00 0.01 0.01 0.00 0.00 0.00 0.01 0.01 0.02 0.02 0.02 0.01 0.00 0.00 0.00 0.00 0.00 0.00 0.00 0.01 0.01 0.01 0.00 0.00 0.00 0.00 0.00 0.00 0.00 0.00 0.00 0.00
0.00 0.00 0.00 0.00 0.00 0.00 0.00 0.00 0.00 0.00 0.00 0.00 0.00 0.00 0.00 0.00 0.01 0.01 0.01 0.02 0.01 0.00 0.00 0.00 0.00 0.00 0.00 0.01 0.01 0.01 0.01 0.01 0.01 0.01 0.00 0.00 0.00 0.00 0.00 0.00 0.00 0.00 0.00
0.00 0.00 0.00 0.00 0.00 0.00 0.00 0.00 0.00 0.00 0.00 0.00 0.00 0.00 0.00 0.00 0.00 0.01 0.01 0.01 0.00 0.00 0.00 0.00 0.01 0.01 0.01 0.01 0.01 0.01 0.01 0.01 0.01 0.01 0.00 0.00 0.00 0.00 0.00 0.00 0.00 0.00 0.00
0.00 0.00 0.00 0.00 0.00 0.00 0.00 0.00 0.00 0.00 0.00 0.00 0.00 0.00 0.00 0.00 0.00 0.01 0.01 0.00 0.00 0.00 0.00 0.00 0.01 0.01 0.01 0.01 0.01 0.01 0.01 0.01 0.01 0.00 0.00 0.00 0.00 0.00 0.00 0.00 0.00 0.00 0.00
0.00 0.00 0.00 0.00 0.00 0.00 0.00 0.00 0.00 0.00 0.00 0.00 0.00 0.00 0.00 0.00 0.00 0.00 0.00 0.00 0.00 0.00 0.01 0.01 0.01 0.01 0.01 0.01 0.01 0.01 0.01 0.01 0.01 0.01 0.00 0.00 0.00 0.00 0.00 0.00 0.00 0.00 0.00
0.00 0.00 0.00 0.00 0.00 0.00 0.00 0.00 0.00 0.00 0.00 0.00 0.00 0.00 0.00 0.01 0.00 0.00 0.00 0.00 0.00 0.01 0.01 0.01 0.01 0.01 0.01 0.01 0.01 0.01 0.01 0.01 0.00 0.00 0.00 0.00 0.00 0.00 0.00 0.00 0.00 0.00 0.00
0.00 0.00 0.00 0.00 0.00 0.00 0.00 0.00 0.00 0.00 0.00 0.00 0.00 0.00 0.00 0.00 0.00 0.00 0.00 0.01 0.01 0.01 0.01 0.01 0.01 0.01 0.01 0.01 0.01 0.01 0.01 0.00 0.00 0.00 0.00 0.00 0.00 0.00 0.00 0.00 0.00 0.00 0.00
0.00 0.00 0.00 0.00 0.00 0.00 0.00 0.00 0.00 0.00 0.00 0.00 0.00 0.00 0.00 0.00 0.00 0.00 0.01 0.01 0.01 0.01 0.01 0.01 0.00 0.01 0.00 0.01 0.01 0.01 0.00 0.00 0.00 0.00 0.00 0.00 0.00 0.00 0.00 0.00 0.00 0.00 0.00
0.00 0.00 0.00 0.00 0.00 0.00 0.00 0.00 0.00 0.00 0.00 0.00 0.00 0.00 0.00 0.00 0.00 0.01 0.01 0.01 0.01 0.01 0.00 0.00 0.00 0.00 0.00 0.00 0.00 0.01 0.00 0.00 0.00 0.00 0.00 0.00 0.00 0.00 0.00 0.00 0.00 0.00 0.00
0.00 0.00 0.00 0.00 0.00 0.00 0.00 0.00 0.00 0.00 0.00 0.00 0.00 0.00 0.00 0.00 0.01 0.01 0.01 0.01 0.01 0.01 0.01 0.00 0.00 0.00 0.00 0.00 0.00 0.00 0.00 0.00 0.00 0.00 0.00 0.00 0.00 0.00 0.00 0.00 0.00 0.00 0.00
0.00 0.00 0.00 0.00 0.00 0.00 0.00 0.00 0.00 0.00 0.00 0.00 0.00 0.00 0.00 0.01 0.01 0.01 0.01 0.01 0.01 0.01 0.00 0.00 0.00 0.00 0.00 0.00 0.00 0.00 0.00 0.00 0.00 0.00 0.00 0.00 0.00 0.00 0.00 0.00 0.00 0.00 0.00
0.00 0.00 0.00 0.00 0.00 0.00 0.00 0.00 0.00 0.00 0.00 0.00 0.00 0.00 0.00 0.00 0.00 0.01 0.01 0.01 0.01 0.00 0.00 0.00 0.00 0.00 0.00 0.00 0.00 0.00 0.00 0.00 0.00 0.00 0.00 0.00 0.00 0.00 0.00 0.00 0.00 0.00 0.01
MSLP
1014.61 1015.25 1015.73 1016.05 1016.35 1016.72 1017.20 1017.81 1018.30 1018.72 1019.02 1019.30 1019.52 1019.77 1019.88 1019.98 1020.08 1020.13 1020.09 1020.04 1020.02 1019.96 1020.00 1019.91 1019.76 1019.77 1019.57 1019.51 1019.45 1019.27 1019.14 1019.08 1018.55 1017.27 1017.91 1017.76 1017.37 1017.10 1016.75 1016.73 1016.58 1016.45 1016.29
1015.13 1015.55 1015.98 1016.48 1016.87 1017.21 1017.64 1018.03 1018.46 1018.75 1019.17 1019.41 1019.61 1019.79 1019.89 1019.92 1019.97 1019.97 1019.91 1019.87 1019.78 1019.68 1019.59 1019.45 1019.23 1019.22 1019.04 1018.95 1018.83 1018.63 1018.52 1018.44 1018.15 1017.30 1017.37 1017.31 1017.36 1017.12 1016.74 1016.53 1016.33 1016.02 1015.87
1015.48 1015.97 1016.53 1016.96 1017.23 1017.49 1017.84 1018.31 1018.63 1018.86 1019.04 1019.20 1019.50 1019.70 1019.77 1019.86 1019.91 1019.88 1019.79 1019.69 1019.54 1019.40 1019.26 1019.11 1018.85 1018.74 1018.49 1018.33 1018.18 1017.94 1017.78 1017.60 1017.42 1017.24 1017.02 1017.18 1017.09 1016.80 1016.59 1016.32 1016.14 1015.86 1015.68
1016.01 1016.42 1016.83 1017.16 1017.64 1017.98 1018.28 1018.54 1018.73 1018.90 1019.05 1019.14 1019.27 1019.43 1019.61 1019.71 1019.72 1019.71 1019.62 1019.50 1019.30 1019.08 1018.85 1018.59 1018.24 1017.98 1017.73 1017.59 1017.45 1017.25 1017.05 1016.93 1016.93 1017.00 1017.05 1016.95 1016.91 1016.64 1016.53 1016.07 1015.85 1015.65 1015.29
1016.40 1016.83 1017.25 1017.73 1018.09 1018.30 1018.54 1018.73 1018.81 1018.88 1018.98 1019.09 1019.25 1019.40 1019.46 1019.42 1019.40 1019.37 1019.45 1019.40 1019.23 1018.83 1018.53 1018.16 1017.72 1017.39 1017.25 1017.21 1017.10 1016.95 1017.27 1017.16 1017.15 1017.14 1016.91 1016.73 1016.30 1016.24 1016.10 1015.89 1015.59 1015.17 1014.73
1016.69 1017.18 1017.85 1018.07 1018.29 1018.57 1018.63 1018.70 1018.74 1018.83 1018.95 1019.03 1018.95 1018.97 1019.03 1019.06 1019.00 1019.20 1019.36 1019.21 1018.93 1018.55 1017.96 1017.54 1017.38 1017.29 1017.18 1016.78 1016.31 1016.00 1015.90 1015.92 1016.04 1015.89 1015.67 1015.59 1015.56 1015.57 1015.48 1015.23 1014.92 1014.63 1014.22
1017.05 1017.56 1017.95 1018.24 1018.44 1018.54 1018.58 1018.66 1018.72 1018.77 1018.71 1018.69 1018.72 1018.72 1018.75 1018.77 1018.71 1018.83 1018.91 1018.81 1018.50 1018.07 1017.82 1017.53 1017.17 1016.78 1016.45 1016.10 1015.80 1015.38 1015.10 1014.78 1014.59 1014.65 1014.49 1014.46 1014.31 1014.44 1014.32 1014.00 1013.88 1013.62 1013.13
1017.39 1017.75 1018.11 1018.30 1018.40 1018.47 1018.53 1018.60 1018.59 1018.50 1018.52 1018.57 1018.58 1018.56 1018.50 1018.50 1018.46 1018.43 1018.41 1018.34 1017.95 1017.71 1017.35 1016.90 1016.52 1016.08 1015.89 1015.46 1015.24 1014.98 1014.87 1014.52 1014.09 1013.86 1013.53 1013.14 1013.15 1013.06 1012.95 1013.02 1012.99 1012.70 1012.37
1017.73 1017.89 1018.09 1018.26 1018.44 1018.57 1018.68 1018.70 1018.67 1018.57 1018.54 1018.53 1018.46 1018.43 1018.33 1018.11 1018.04 1018.02 1018.02 1017.81 1017.66 1017.20 1016.79 1016.21 1015.73 1015.31 1015.04 1014.84 1014.52 1014.38 1014.08 1013.71 1013.14 1012.78 1012.50 1012.27 1012.08 1012.03 1012.04 1012.17 1012.08 1012.51 1011.98
1017.94 1018.20 1018.38 1018.52 1018.69 1018.67 1018.65 1018.65 1018.63 1018.64 1018.51 1018.48 1018.33 1018.20 1017.95 1017.74 1017.59 1017.46 1017.54 1017.53 1017.21 1016.68 1016.05 1015.46 1015.03 1014.74 1014.31 1013.97 1013.84 1013.67 1013.26 1012.86 1012.52 1012.37 1012.13 1011.69 1011.35 1011.24 1011.26 1011.38 1011.46 1011.54 1011.48
1018.42 1018.48 1018.56 1018.62 1018.67 1018.74 1018.75 1018.69 1018.61 1018.48 1018.42 1018.34 1018.08 1017.84 1017.59 1017.44 1017.43 1017.40 1017.28 1016.90 1016.48 1015.95 1015.40 1014.89 1014.50 1014.13 1013.71 1013.40 1013.08 1013.03 1012.89 1012.53 1012.18 1011.88 1011.78 1011.17 1010.88 1010.72 1010.74 1010.80 1011.06 1011.47 1011.22
1018.64 1018.64 1018.62 1018.65 1018.72 1018.71 1018.62 1018.60 1018.50 1018.37 1018.25 1018.06 1017.84 1017.53 1017.44 1017.68 1017.45 1017.17 1016.73 1016.29 1015.85 1015.38 1014.92 1014.49 1014.10 1013.67 1013.12 1012.61 1012.32 1012.09 1011.75 1011.46 1011.58 1011.34 1011.14 1010.73 1010.39 1010.29 1010.34 1010.46 1010.73 1010.72 1010.36
1018.59 1018.57 1018.60 1018.74 1018.73 1018.63 1018.49 1018.44 1018.47 1018.37 1018.33 1018.10 1017.85 1017.78 1017.71 1017.56 1017.24 1016.85 1016.30 1015.67 1015.25 1014.99 1014.50 1013.95 1013.44 1013.02 1012.62 1012.30 1012.04 1011.69 1011.40 1011.52 1011.32 1011.05 1010.64 1010.36 1010.30 1010.19 1010.19 1010.27 1010.30 1010.10 1009.68
1018.62 1018.63 1018.74 1018.70 1018.70 1018.74 1018.66 1018.59 1018.56 1018.58 1018.51 1018.35 1018.48 1018.10 1017.77 1017.51 1017.06 1016.59 1016.03 1015.62 1015.11 1014.45 1014.08 1013.50 1013.10 1012.59 1012.25 1011.94 1011.63 1011.44 1011.21 1010.95 1010.71 1010.49 1010.33 1010.22 1010.04 1009.98 1009.95 1009.85 1009.70 1009.54 1009.22
1018.87 1018.78 1018.84 1018.87 1018.92 1018.80 1018.76 1018.72 1018.88 1018.85 1018.88 1018.90 1018.58 1018.22 1017.79 1017.23 1016.78 1016.33 1015.74 1015.11 1014.61 1014.18 1013.57 1013.16 1012.79 1012.42 1012.05 1011.73 1011.35 1011.00 1010.75 1010.43 1010.17 1009.98 1009.89 1009.84 1009.73 1009.56 1009.41 1009.31 1009.13 1008.98 1008.72
1019.42 1019.26 1019.19 1019.25 1019.11 1018.92 1018.89 1018.81 1018.72 1018.90 1019.04 1018.69 1018.22 1017.80 1017.39 1016.96 1016.43 1015.85 1015.24 1014.58 1014.18 1013.68 1013.30 1012.99 1012.59 1012.27 1011.82 1011.42 1011.13 1010.72 1010.42 1010.04 1009.79 1009.56 1009.44 1009.37 1009.32 1009.14 1008.94 1008.75 1008.58 1008.35 1007.97
1019.89 1019.75 1019.77 1019.48 1019.29 1019.21 1019.16 1018.93 1018.99 1019.03 1018.85 1018.39 1017.93 1017.45 1017.18 1016.60 1015.99 1015.41 1014.65 1014.03 1013.66 1013.37 1013.27 1012.87 1012.48 1012.04 1011.62 1011.24 1010.88 1010.49 1010.09 1009.77 1009.50 1009.15 1008.98 1008.83 1008.75 1008.64 1008.46 1008.11 1007.81 1007.53 1007.22
1020.20 1020.08 1019.92 1019.68 1019.51 1019.47 1019.47 1019.44 1019.55 1019.22 1018.63 1018.17 1017.89 1017.42 1016.80 1016.16 1015.57 1014.91 1014.30 1013.86 1013.64 1013.40 1013.12 1012.71 1012.23 1011.77 1011.33 1010.97 1010.54 1010.17 1009.83 1009.44 1009.06 1008.76 1008.51 1008.33 1008.23 1008.08 1007.84 1007.49 1007.22 1006.88 1006.51
1020.38 1020.20 1020.31 1020.02 1019.70 1019.67 1019.52 1019.81 1019.63 1019.19 1018.62 1018.09 1017.49 1017.08 1016.46 1015.75 1015.14 1014.56 1014.11 1013.89 1013.54 1013.15 1012.73 1012.29 1011.86 1011.41 1010.90 1010.52 1010.17 1009.85 1009.49 1009.02 1008.63 1008.28 1008.02 1007.82 1007.57 1007.39 1007.09 1006.78 1006.32 1005.87 1005.60
1020.53 1020.53 1020.52 1020.19 1019.80 1019.59 1019.90 1019.84 1019.52 1019.11 1018.56 1017.94 1017.41 1016.80 1016.04 1015.52 1014.84 1014.27 1013.82 1013.50 1013.27 1012.81 1012.31 1011.81 1011.33 1010.87 1010.39 1009.98 1009.69 1009.37 1008.92 1008.53 1008.18 1007.85 1007.57 1007.29 1007.04 1006.81 1006.43 1005.96 1005.47 1005.03 1004.49
1020.78 1020.52 1020.44 1020.04 1019.90 1019.89 1019.88 1019.79 1019.49 1019.18 1018.68 1017.94 1017.32 1016.69 1015.95 1015.23 1014.61 1014.05 1013.51 1013.20 1012.92 1012.39 1011.83 1011.30 1010.79 1010.35 1009.83 1009.38 1009.09 1008.72 1008.32 1007.95 1007.61 1007.29 1007.02 1006.76 1006.49 1006.11 1005.66 1005.15 1004.69 1004.19 1003.54
1020.89 1020.58 1020.38 1020.17 1020.00 1019.94 1020.13 1019.98 1019.60 1019.16 1018.50 1017.77 1017.04 1016.34 1015.61 1014.97 1014.33 1013.74 1013.28 1012.78 1012.28 1011.79 1011.26 1010.69 1010.13 1009.65 1009.22 1008.75 1008.37 1007.99 1007.59 1007.32 1006.99 1006.75 1006.50 1006.25 1005.95 1005.58 1005.17 1004.63 1003.93 1003.23 1002.60
1020.93 1020.71 1020.40 1020.12 1020.03 1020.30 1020.34 1020.03 1019.54 1018.91 1018.23 1017.56 1016.82 1016.03 1015.29 1014.60 1014.01 1013.39 1012.72 1012.11 1011.53 1010.91 1010.32 1009.76 1009.22 1008.68 1008.23 1007.79 1007.48 1007.25 1006.92 1006.64 1006.41 1006.17 1005.95 1005.72 1005.45 1005.10 1004.66 1004.01 1003.24 1002.54 1001.82
1021.01 1020.68 1020.42 1020.21 1020.25 1020.58 1020.46 1019.94 1019.30 1018.64 1018.00 1017.26 1016.50 1015.71 1014.96 1014.35 1013.67 1012.95 1012.24 1011.53 1010.83 1010.11 1009.45 1008.79 1008.19 1007.66 1007.17 1006.74 1006.41 1006.23 1006.03 1005.86 1005.71 1005.56 1005.38 1005.22 1004.88 1004.54 1004.06 1003.28 1002.54 1001.83 1001.05
1021.08 1020.78 1020.56 1020.40 1020.69 1020.75 1020.34 1019.78 1019.09 1018.40 1017.75 1017.04 1016.24 1015.45 1014.74 1014.04 1013.28 1012.51 1011.70 1010.90 1010.06 1009.20 1008.38 1007.74 1007.10 1006.48 1005.99 1005.64 1005.40 1005.30 1005.18 1005.08 1005.03 1004.96 1004.86 1004.64 1004.34 1004.00 1003.36 1002.59 1001.73 1000.86 1000.13
1021.33 1021.01 1020.76 1020.79 1021.07 1020.78 1020.29 1019.61 1018.94 1018.25 1017.57 1016.81 1016.05 1015.29 1014.50 1013.69 1012.93 1012.07 1011.13 1010.17 1009.20 1008.26 1007.37 1006.52 1005.84 1005.34 1004.92 1004.59 1004.42 1004.38 1004.35 1004.30 1004.25 1004.24 1004.26 1004.12 1003.84 1003.35 1002.64 1001.72 1000.83 1000.08 999.18
Thickness
5613 5605 5597 5591 5585 5577 5569 5559 5550 5541 5533 5524 5515 5505 5496 5488 5479 5469 5461 5453 5445 5437 5427 5419 5415 5405 5402 5396 5391 5389 5385 5379 5379 5405 5385 5385 5389 5391 5395 5394 5397 5399 5400
5600 5593 5586 5578 5570 5562 5554 5545 5535 5526 5516 5506 5497 5487 5478 5469 5460 5451 5442 5431 5423 5415 5408 5402 5398 5392 5388 5384 5380 5378 5374 5371 5369 5378 5378 5377 5375 5379 5382 5383 5384 5387 5389
5589 5581 5572 5564 5557 5549 5540 5529 5519 5510 5500 5490 5480 5470 5461 5450 5439 5429 5420 5413 5405 5398 5393 5388 5386 5382 5380 5377 5374 5372 5371 5368 5367 5365 5370 5369 5368 5370 5370 5372 5372 5374 5376
5575 5568 5559 5551 5541 5532 5522 5511 5502 5492 5482 5473 5463 5453 5442 5431 5420 5411 5403 5397 5391 5387 5383 5381 5380 5378 5377 5374 5370 5368 5365 5363 5361 5357 5357 5358 5357 5359 5359 5364 5363 5365 5369
5562 5554 5544 5534 5524 5514 5504 5494 5485 5475 5465 5455 5444 5433 5423 5414 5406 5397 5389 5384 5380 5380 5379 5377 5375 5374 5370 5366 5361 5360 5352 5348 5346 5344 5345 5348 5353 5352 5352 5354 5356 5359 5364
5549 5539 5526 5516 5507 5496 5487 5477 5468 5458 5447 5436 5428 5419 5410 5401 5394 5387 5380 5378 5376 5375 5375 5373 5368 5363 5360 5359 5359 5357 5355 5352 5348 5348 5348 5348 5348 5347 5347 5349 5352 5354 5357
5533 5522 5510 5499 5489 5479 5470 5460 5450 5440 5432 5423 5414 5406 5398 5391 5387 5382 5377 5374 5372 5371 5366 5362 5361 5359 5357 5355 5354 5354 5354 5355 5355 5352 5352 5352 5351 5349 5348 5350 5350 5352 5357
5517 5506 5494 5483 5472 5462 5452 5442 5434 5426 5418 5409 5401 5394 5390 5385 5382 5378 5374 5370 5368 5365 5362 5360 5358 5358 5354 5353 5350 5350 5349 5351 5353 5353 5354 5356 5352 5351 5350 5349 5348 5350 5353
5500 5489 5478 5466 5454 5443 5433 5424 5417 5411 5404 5397 5391 5387 5384 5382 5378 5374 5369 5367 5363 5362 5360 5358 5357 5357 5355 5353 5352 5351 5351 5352 5354 5355 5355 5355 5353 5351 5349 5346 5346 5341 5345
5484 5470 5457 5444 5433 5424 5417 5410 5405 5399 5394 5388 5385 5382 5381 5379 5375 5372 5366 5362 5359 5358 5358 5358 5356 5355 5356 5356 5354 5352 5354 5355 5354 5353 5352 5353 5351 5349 5346 5344 5343 5342 5343
5463 5449 5435 5424 5416 5408 5402 5398 5394 5390 5386 5381 5381 5380 5378 5374 5370 5366 5362 5359 5358 5358 5357 5356 5355 5354 5355 5355 5354 5351 5348 5349 5349 5348 5346 5348 5346 5344 5341 5338 5335 5332 5334
5442 5427 5416 5407 5400 5395 5392 5388 5385 5382 5380 5378 5378 5377 5373 5365 5362 5361 5360 5358 5356 5356 5355 5354 5353 5353 5355 5356 5354 5353 5352 5350 5344 5342 5339 5338 5337 5335 5333 5330 5327 5328 5332
5422 5409 5400 5392 5387 5385 5383 5381 5377 5375 5373 5374 5373 5369 5365 5361 5359 5357 5357 5358 5356 5353 5353 5354 5355 5354 5354 5352 5350 5349 5347 5340 5336 5333 5330 5328 5326 5325 5324 5323 5323 5325 5329
5406 5393 5384 5381 5378 5376 5375 5373 5370 5368 5368 5367 5361 5360 5358 5355 5355 5355 5355 5353 5353 5354 5352 5352 5351 5351 5350 5348 5346 5342 5339 5335 5331 5327 5323 5320 5320 5319 5319 5320 5322 5324 5327
5394 5384 5376 5373 5371 5370 5368 5367 5364 5362 5360 5356 5355 5354 5354 5354 5353 5352 5352 5353 5353 5352 5352 5351 5349 5347 5345 5343 5341 5339 5335 5332 5329 5326 5324 5322 5321 5322 5322 5322 5323 5325 5326
5387 5380 5374 5368 5367 5367 5366 5364 5363 5358 5354 5354 5354 5355 5354 5353 5352 5352 5352 5353 5352 5351 5349 5346 5345 5343 5342 5341 5337 5335 5332 5332 5332 5332 5331 5329 5327 5327 5327 5328 5329 5330 5332
5384 5378 5372 5371 5369 5366 5363 5363 5358 5353 5350 5352 5353 5353 5351 5351 5352 5351 5352 5352 5350 5348 5343 5341 5340 5340 5339 5337 5335 5332 5331 5333 5334 5335 5335 5335 5333 5332 5332 5333 5335 5336 5337
5382 5377 5373 5370 5368 5364 5360 5356 5350 5349 5350 5350 5349 5350 5351 5352 5352 5352 5351 5349 5344 5341 5338 5336 5336 5336 5335 5333 5333 5331 5331 5334 5337 5338 5339 5339 5337 5336 5336 5338 5338 5339 5340
5380 5375 5369 5367 5365 5361 5357 5350 5348 5348 5349 5350 5351 5350 5350 5351 5350 5349 5347 5342 5338 5335 5333 5332 5332 5332 5333 5332 5331 5329 5331 5335 5338 5341 5342 5342 5342 5341 5341 5342 5344 5346 5345
5376 5371 5365 5363 5362 5359 5351 5348 5347 5347 5348 5349 5348 5348 5350 5348 5347 5345 5342 5337 5332 5330 5328 5328 5328 5329 5330 5331 5330 5329 5333 5336 5339 5342 5343 5344 5345 5344 5344 5346 5348 5349 5348
5371 5368 5363 5362 5358 5354 5350 5346 5344 5343 5343 5345 5345 5345 5347 5346 5345 5342 5339 5333 5327 5325 5324 5324 5324 5325 5328 5330 5330 5331 5334 5338 5341 5344 5346 5347 5347 5348 5350 5351 5351 5350 5351
5367 5365 5361 5358 5355 5352 5345 5342 5341 5340 5341 5342 5343 5344 5345 5343 5342 5339 5335 5330 5328 5325 5323 5321 5321 5322 5325 5328 5330 5332 5335 5339 5342 5345 5347 5348 5349 5350 5351 5352 5354 5355 5355
5364 5361 5358 5356 5352 5345 5340 5338 5338 5339 5340 5341 5342 5343 5343 5342 5340 5336 5334 5332 5330 5328 5326 5324 5323 5323 5325 5329 5331 5332 5335 5340 5343 5347 5348 5350 5351 5352 5352 5355 5356 5357 5358
5361 5359 5356 5353 5348 5339 5335 5336 5338 5339 5339 5340 5341 5342 5341 5339 5337 5335 5334 5333 5331 5330 5329 5329 5328 5328 5329 5331 5333 5335 5336 5341 5345 5348 5350 5351 5353 5354 5355 5358 5359 5359 5360
5357 5355 5352 5349 5341 5334 5333 5335 5337 5338 5338 5339 5340 5340 5339 5338 5336 5335 5335 5334 5333 5333 5334 5333 5333 5334 5335 5335 5336 5337 5338 5342 5346 5349 5351 5353 5355 5356 5359 5362 5363 5364 5366
5352 5350 5348 5343 5335 5333 5332 5333 5334 5336 5336 5337 5337 5337 5337 5337 5336 5336 5336 5336 5337 5337 5336 5337 5337 5337 5339 5340 5341 5341 5341 5344 5348 5351 5353 5355 5357 5359 5363 5367 5369 5369 5374